ISS (NAUKA)

Last updated on Wed Dec 17 2025 00:02:11 GMT+0000 (Coordinated Universal Time)

1 49044U 21066A 25350.08808596 .00006404 00000+0 12171-3 0 9993 2 49044 51.6306 125.8981 0003173 255.6781 104.3856 15.49613604230445
UTC large
Height (km)
Speed (km/s)
/
Latitude / Longitude
Inclination (degrees)
Orbital Period (minutes)
Azimuth
Elevation
Range (km)
Doppler Factor

Next 0 passes for location: London (51.5072 / 0.1276)

Sorry there are no passes over London.